Location: Saint Louis
(38.6272°N, 90.1978°W)
Time: 05:11:45
(UTC-05:00)

ISS - Pass Details

Date: 21 August 2013
Orbit: 401 x 404 km, 51.6° (Epoch: 29 July)

Event Time Altitude Azimuth Distance (km) Brightness Sun altitude
Rises 20:30:39 0° 318° (NW) 2,316 1.8 -9.0°
Reaches altitude 10° 20:33:25 10° 344° (NNW) 1,456 0.1 -9.5°
Maximum altitude 20:35:22 15° 20° (NNE) 1,204 -0.9 -9.8°
Drops below altitude 10° 20:37:19 10° 57° (ENE) 1,458 -0.8 -10.2°
Enters shadow 20:38:06 - 67° (ENE) 1,666 -0.6 -10.3°
